Location: Follega
(52.8850°N, 5.7362°E)
Time: 01:57:07
(UTC+00:00)

SL-27 R/B - Pass Details

Date: 01 June 2020
Orbit: 420 x 470 km, 74.7° (Epoch: 15 July)

Event Time Altitude Azimuth Distance (km) Brightness Sun altitude
Rises 21:20:39 0° 336° (NNW) 2,524 8.4 -9.4°
Reaches altitude 10° 21:22:47 10° 337° (NNW) 1,637 6.8 -9.6°
Maximum altitude 21:26:24 82° 65° (ENE) 476 2.5 -9.9°
Enters shadow 21:29:16 15° 153° (SSE) 1,327 4.1 -10.1°
